Date String (YYYY-MM-DD hh:mm:ss) UTC,Instrument flags,Ambient pressure (hPa),Sample flow (lpm),Bypass flow (lpm),Sample temperature (°C),Ambient temperature (°C),ASC tube jacket temperature (°C),LED temperature (°C),Box temperature (°C),Sample RH (%),Span deviation,Mass concentration (μg/m³),Mass concentration (μg/m³),Mass concentration (μg/m³)
DateTimeUTC,F1_M11,P_M11,Q1_M11,Q2_M11,T1_M11,T2_M11,T3_M11,T4_M11,T5_M11,U1_M11,ZSPAN_M11,X0_M11,X2_M11,X1_M11
2022-08-13 19:00:00,,0831.2,4.99,0.00,30.2,27.1,00.0,38.5,31.1,34.3,0000.0,0012.98,0006.35,0005.35
2022-08-13 19:01:00,,0831.2,5.01,0.00,30.1,27.2,00.0,38.5,31.1,34.5,0000.0,0012.71,0006.32,0005.37
2022-08-13 19:02:00,,0831.1,4.98,0.00,30.1,27.4,00.0,38.5,31.1,34.8,0000.0,0012.94,0006.31,0005.37
2022-08-13 19:03:00,,0831.2,5.01,0.00,30.1,27.6,00.0,38.5,31.2,34.6,0000.0,0012.89,0006.33,0005.38
2022-08-13 19:04:00,,0831.2,4.99,0.00,30.1,27.8,00.0,38.5,31.3,34.4,0000.0,0012.89,0006.31,0005.39
2022-08-13 19:05:00,,0831.1,5.00,0.00,30.1,28.0,00.0,38.5,31.4,34.5,0000.0,0013.30,0006.29,0005.41
2022-08-13 19:06:00,,0831.1,5.00,0.00,30.2,28.1,00.0,38.6,31.4,34.5,0000.0,0012.94,0006.27,0005.41
2022-08-13 19:07:00,,0831.1,5.00,0.00,30.2,28.0,00.0,38.6,31.4,34.2,0000.0,0012.40,0006.29,0005.42
2022-08-13 19:08:00,,0831.1,5.00,0.00,30.1,27.5,00.0,38.5,31.2,34.3,0000.0,0012.45,0006.30,0005.43
2022-08-13 19:09:00,,0831.0,5.00,0.00,30.0,27.1,00.0,38.5,31.1,34.4,0000.0,0012.30,0006.27,0005.45
2022-08-13 19:10:00,,0831.0,5.00,0.00,29.9,27.1,00.0,38.5,31.1,34.6,0000.0,0012.15,0006.28,0005.47
2022-08-13 19:11:00,,0831.1,5.01,0.00,29.8,27.2,00.0,38.5,31.0,34.6,0000.0,0012.34,0006.33,0005.47
2022-08-13 19:12:00,,0831.1,4.99,0.00,29.8,27.4,00.0,38.4,31.1,34.6,0000.0,0012.84,0006.38,0005.47
2022-08-13 19:13:00,,0831.1,5.00,0.00,29.8,27.6,00.0,38.4,31.1,34.8,0000.0,0012.41,0006.41,0005.47
2022-08-13 19:14:00,,0831.0,4.99,0.00,29.9,27.8,00.0,38.4,31.3,34.6,0000.0,0012.33,0006.38,0005.48
2022-08-13 19:15:00,,0831.1,5.00,0.00,30.0,27.9,00.0,38.4,31.4,34.6,0000.0,0012.33,0006.35,0005.47
2022-08-13 19:16:00,,0831.1,5.01,0.00,30.0,28.1,00.0,38.5,31.4,34.3,0000.0,0011.82,0006.35,0005.46
2022-08-13 19:17:00,,0831.1,5.00,0.00,30.0,28.1,00.0,38.5,31.4,34.0,0000.0,0011.72,0006.34,0005.45
2022-08-13 19:18:00,,0831.1,4.99,0.00,30.0,27.5,00.0,38.4,31.2,34.2,0000.0,0011.91,0006.30,0005.46
2022-08-13 19:19:00,,0831.1,5.00,0.00,29.9,27.1,00.0,38.4,31.1,34.3,0000.0,0012.59,0006.28,0005.45
2022-08-13 19:20:00,,0831.1,5.01,0.00,29.9,27.1,00.0,38.4,31.1,34.7,0000.0,0013.76,0006.33,0005.45
2022-08-13 19:21:00,,0831.1,4.99,0.00,29.8,27.2,00.0,38.4,31.0,34.6,0000.0,0013.92,0006.36,0005.44
2022-08-13 19:22:00,,0831.1,5.01,0.00,29.8,27.3,00.0,38.4,31.0,34.7,0000.0,0014.00,0006.34,0005.43
2022-08-13 19:23:00,,0831.0,4.99,0.00,29.8,27.5,00.0,38.4,31.1,34.8,0000.0,0014.06,0006.33,0005.43
2022-08-13 19:24:00,,0831.0,5.02,0.00,29.8,27.7,00.0,38.4,31.3,34.5,0000.0,0014.70,0006.29,0005.42
2022-08-13 19:25:00,,0831.0,4.99,0.00,29.8,27.9,00.0,38.4,31.3,34.3,0000.0,0014.80,0006.33,0005.41
2022-08-13 19:26:00,,0830.9,5.01,0.00,29.9,28.1,00.0,38.4,31.4,34.0,0000.0,0015.90,0006.34,0005.42
2022-08-13 19:27:00,,0830.9,5.01,0.00,29.9,27.8,00.0,38.4,31.3,34.1,0000.0,0016.48,0006.32,0005.42
2022-08-13 19:28:00,,0830.9,4.99,0.00,29.8,27.3,00.0,38.3,31.1,34.3,0000.0,0016.80,0006.33,0005.43
2022-08-13 19:29:00,,0830.9,5.00,0.00,29.7,27.1,00.0,38.3,31.0,34.1,0000.0,0017.09,0006.37,0005.44
2022-08-13 19:30:00,,0830.9,5.01,0.00,29.7,27.1,00.0,38.3,30.9,34.1,0000.0,0016.60,0006.40,0005.45
2022-08-13 19:31:00,,0830.9,4.98,0.00,29.6,27.2,00.0,38.3,30.9,33.8,0000.0,0015.72,0006.39,0005.45
2022-08-13 19:32:00,,0830.9,5.01,0.00,29.6,27.4,00.0,38.3,31.0,34.2,0000.0,0016.97,0006.38,0005.45
2022-08-13 19:33:00,,0830.9,4.99,0.00,29.6,27.6,00.0,38.3,31.1,34.4,0000.0,0016.71,0006.35,0005.44
2022-08-13 19:34:00,,0830.9,5.01,0.00,29.6,27.8,00.0,38.3,31.2,34.4,0000.0,0016.42,0006.35,0005.45
2022-08-13 19:35:00,,0830.9,4.99,0.00,29.6,28.0,00.0,38.3,31.3,34.5,0000.0,0016.41,0006.33,0005.44
2022-08-13 19:36:00,,0830.9,5.00,0.00,29.6,28.1,00.0,38.3,31.3,34.2,0000.0,0016.62,0006.30,0005.44
2022-08-13 19:37:00,,0830.8,5.02,0.00,29.7,27.9,00.0,38.3,31.2,34.5,0000.0,0016.34,0006.30,0005.46
2022-08-13 19:38:00,,0830.8,4.99,0.00,29.6,27.4,00.0,38.2,31.0,34.7,0000.0,0015.89,0006.36,0005.47
2022-08-13 19:39:00,,0830.8,5.00,0.00,29.5,27.1,00.0,38.2,31.0,35.2,0000.0,0016.38,0006.38,0005.46
2022-08-13 19:40:00,,0830.8,5.01,0.00,29.6,27.0,00.0,38.2,31.0,34.6,0000.0,0016.13,0006.37,0005.46
2022-08-13 19:41:00,,0830.8,5.00,0.00,29.7,27.2,00.0,38.2,31.1,34.2,0000.0,0016.20,0006.30,0005.44
2022-08-13 19:42:00,,0830.8,5.00,0.00,29.8,27.3,00.0,38.2,31.1,34.2,0000.0,0015.94,0006.30,0005.44
2022-08-13 19:43:00,,0830.8,5.00,0.00,29.8,27.5,00.0,38.2,31.1,34.5,0000.0,0014.83,0006.30,0005.44
2022-08-13 19:44:00,,0830.8,5.00,0.00,29.8,27.8,00.0,38.2,31.2,33.8,0000.0,0014.93,0006.32,0005.45
2022-08-13 19:45:00,,0830.7,5.01,0.00,29.9,28.0,00.0,38.2,31.3,33.7,0000.0,0015.48,0006.32,0005.44
2022-08-13 19:46:00,,0830.8,5.00,0.00,29.9,28.1,00.0,38.3,31.4,33.7,0000.0,0015.57,0006.35,0005.44
2022-08-13 19:47:00,,0830.7,5.00,0.00,29.9,28.0,00.0,38.3,31.3,33.8,0000.0,0016.22,0006.36,0005.45
2022-08-13 19:48:00,,0830.6,5.00,0.00,29.9,27.5,00.0,38.3,31.1,34.0,0000.0,0015.88,0006.40,0005.45
2022-08-13 19:49:00,,0830.6,5.00,0.00,29.8,27.1,00.0,38.2,31.0,34.1,0000.0,0015.46,0006.37,0005.44
2022-08-13 19:50:00,,0830.6,4.99,0.00,29.7,27.1,00.0,38.2,30.9,34.2,0000.0,0015.03,0006.33,0005.45
2022-08-13 19:51:00,,0830.6,5.01,0.00,29.6,27.2,00.0,38.2,30.9,34.8,0000.0,0014.64,0006.36,0005.45
2022-08-13 19:52:00,,0830.6,5.00,0.00,29.6,27.4,00.0,38.2,31.0,34.7,0000.0,0015.10,0006.44,0005.47
2022-08-13 19:53:00,,0830.6,4.99,0.00,29.7,27.5,00.0,38.2,31.1,35.0,0000.0,0015.96,0006.46,0005.48
2022-08-13 19:54:00,,0830.6,5.01,0.00,29.8,27.7,00.0,38.2,31.3,34.8,0000.0,0017.12,0006.49,0005.49
2022-08-13 19:55:00,,0830.6,4.99,0.00,29.9,27.9,00.0,38.3,31.3,34.5,0000.0,0017.87,0006.53,0005.51
2022-08-13 19:56:00,,0830.6,5.00,0.00,30.0,28.1,00.0,38.3,31.4,34.4,0000.0,0017.48,0006.55,0005.53
2022-08-13 19:57:00,,0830.6,5.01,0.00,30.0,28.1,00.0,38.3,31.3,34.3,0000.0,0016.94,0006.60,0005.55
2022-08-13 19:58:00,,0830.6,5.05,0.00,29.9,27.5,00.0,38.3,31.1,34.4,0000.0,0016.72,0006.64,0005.55
2022-08-13 19:59:00,,0830.6,4.99,0.00,29.9,27.1,00.0,38.3,31.0,34.6,0000.0,0015.80,0006.64,0005.56
